When you browse on this site, cookies collect data to enhance your experience and personalize the content and advertising you see.
Visit our Privacy Policy to learn more. By continuing to use the site, you agree to this use of cookies and data.
  • In Denmark
  • List of Countries
  • For 7 days
  • Water Temperature
  • Satellite Maps
  • Weather Map
  • Weather Widgets
  • user-avatar
    Login

    Hourly Weather Chochorowice

    Today, 17 February, Sunday

    Time Temperature Precipitation Wind Pressure Humidity
    00:00 +3°C° 0 mm 2 mps 731 mmHg 75%
    01:00 +3°C° 0 mm 2 mps 731 mmHg 73%
    02:00 +2°C° 0 mm 2 mps 731 mmHg 71%
    03:00 +2°C° 0 mm 2 mps 731 mmHg 70%
    04:00 +2°C° 0 mm 2 mps 730 mmHg 68%
    05:00 +2°C° 0 mm 2 mps 730 mmHg 67%
    06:00 +2°C° 0 mm 2 mps 730 mmHg 66%
    07:00 +2°C° 0 mm 2 mps 731 mmHg 65%
    08:00 +5°C° 0 mm 1 mps 731 mmHg 62%
    09:00 +7°C° 0 mm 1 mps 731 mmHg 59%
    10:00 +9°C° 0 mm 1 mps 731 mmHg 57%
    11:00 +10°C° 0 mm 1 mps 731 mmHg 54%
    12:00 +11°C° 0 mm 1 mps 731 mmHg 52%
    13:00 +13°C° 0 mm 1 mps 730 mmHg 50%
    14:00 +11°C° 0 mm 1 mps 730 mmHg 56%
    15:00 +10°C° 0 mm 1 mps 730 mmHg 62%
    16:00 +8°C° 0 mm 0 mps 730 mmHg 68%
    17:00 +8°C° 0 mm 1 mps 730 mmHg 71%
    18:00 +7°C° 0 mm 1 mps 730 mmHg 74%
    19:00 +5°C° 0 mm 1 mps 730 mmHg 78%
    20:00 +5°C° 0 mm 1 mps 730 mmHg 78%
    21:00 +4°C° 0 mm 1 mps 730 mmHg 78%
    22:00 +4°C° 0 mm 1 mps 729 mmHg 78%
    23:00 +4°C° 0 mm 1 mps 729 mmHg 76%

    Tomorrow, 18 February, Monday

    Time Temperature Precipitation Wind Pressure Humidity
    00:00 +4°C° 0 mm 1 mps 730 mmHg 75%
    01:00 +3°C° 0 mm 1 mps 730 mmHg 73%
    02:00 +3°C° 0 mm 1 mps 729 mmHg 72%
    03:00 +3°C° 0 mm 1 mps 729 mmHg 70%
    04:00 +3°C° 0 mm 1 mps 729 mmHg 68%
    05:00 +3°C° 0 mm 1 mps 729 mmHg 67%
    06:00 +3°C° 0 mm 1 mps 729 mmHg 65%
    07:00 +3°C° 0 mm 1 mps 729 mmHg 64%
    08:00 +5°C° 0 mm 1 mps 729 mmHg 60%
    09:00 +7°C° 0 mm 1 mps 729 mmHg 56%
    10:00 +8°C° 0 mm 0 mps 729 mmHg 52%
    11:00 +9°C° 0 mm 0 mps 729 mmHg 51%
    12:00 +10°C° 0 mm 0 mps 729 mmHg 49%
    13:00 +11°C° 0 mm 0 mps 729 mmHg 47%
    14:00 +10°C° 0 mm 0 mps 728 mmHg 53%
    15:00 +10°C° 0 mm 1 mps 728 mmHg 59%
    16:00 +9°C° 0 mm 1 mps 728 mmHg 65%
    17:00 +8°C° 0 mm 1 mps 728 mmHg 69%
    18:00 +6°C° 0 mm 1 mps 728 mmHg 74%
    19:00 +5°C° 0 mm 1 mps 728 mmHg 78%
    20:00 +5°C° 0 mm 1 mps 728 mmHg 77%
    21:00 +4°C° 0 mm 1 mps 728 mmHg 77%
    22:00 +3°C° 0 mm 2 mps 728 mmHg 77%
    23:00 +3°C° 0 mm 2 mps 727 mmHg 75%

    Day after tomorrow, 19 February, Tuesday

    Time Temperature Precipitation Wind Pressure Humidity
    00:00 +3°C° 0 mm 2 mps 727 mmHg 74%
    01:00 +2°C° 0 mm 2 mps 727 mmHg 72%
    02:00 +2°C° 0 mm 2 mps 727 mmHg 71%
    03:00 +2°C° 0 mm 2 mps 727 mmHg 70%
    04:00 +2°C° 0 mm 2 mps 726 mmHg 69%
    05:00 +1°C° 0 mm 2 mps 726 mmHg 69%
    06:00 +1°C° 0 mm 2 mps 726 mmHg 69%
    07:00 +1°C° 0 mm 2 mps 726 mmHg 69%
    08:00 +3°C° 0 mm 2 mps 726 mmHg 65%
    09:00 +5°C° 0 mm 2 mps 726 mmHg 61%
    10:00 +8°C° 0 mm 1 mps 727 mmHg 57%
    11:00 +10°C° 0 mm 1 mps 726 mmHg 55%
    12:00 +11°C° 0 mm 1 mps 726 mmHg 53%
    13:00 +12°C° 0 mm 1 mps 726 mmHg 51%
    14:00 +11°C° 0 mm 1 mps 725 mmHg 56%
    15:00 +10°C° 0 mm 1 mps 725 mmHg 61%
    16:00 +10°C° 0 mm 1 mps 725 mmHg 66%
    17:00 +8°C° 0 mm 1 mps 725 mmHg 72%
    18:00 +6°C° 0 mm 1 mps 725 mmHg 77%
    19:00 +4°C° 0 mm 2 mps 725 mmHg 83%
    20:00 +3°C° 0 mm 2 mps 725 mmHg 82%
    21:00 +3°C° 0 mm 2 mps 725 mmHg 82%
    22:00 +3°C° 0 mm 2 mps 725 mmHg 81%
    23:00 +3°C° 0 mm 2 mps 725 mmHg 80%

    20 February, Wednesday

    Time Temperature Precipitation Wind Pressure Humidity
    00:00 +3°C° 0 mm 2 mps 725 mmHg 80%
    01:00 +3°C° 0 mm 2 mps 725 mmHg 79%
    02:00 +3°C° 0.1 mm 2 mps 725 mmHg 83%
    03:00 +3°C° 0.1 mm 2 mps 726 mmHg 87%
    04:00 +3°C° 0.1 mm 3 mps 726 mmHg 91%
    05:00 +3°C° 0 mm 2 mps 726 mmHg 92%
    06:00 +2°C° 0 mm 2 mps 726 mmHg 92%
    07:00 +1°C° 0 mm 2 mps 726 mmHg 93%
    08:00 +2°C° 0 mm 3 mps 727 mmHg 86%
    09:00 +3°C° 0 mm 3 mps 727 mmHg 78%
    10:00 +4°C° 0 mm 4 mps 728 mmHg 71%
    11:00 +5°C° 0 mm 4 mps 728 mmHg 68%
    12:00 +5°C° 0 mm 4 mps 728 mmHg 65%
    13:00 +6°C° 0 mm 4 mps 728 mmHg 61%
    14:00 +6°C° 0 mm 4 mps 728 mmHg 63%
    15:00 +5°C° 0 mm 4 mps 728 mmHg 65%
    16:00 +5°C° 0 mm 3 mps 728 mmHg 67%
    17:00 +4°C° 0 mm 3 mps 728 mmHg 71%
    18:00 +4°C° 0 mm 2 mps 728 mmHg 75%
    19:00 +3°C° 0 mm 2 mps 728 mmHg 78%
    20:00 +3°C° 0 mm 2 mps 729 mmHg 80%
    21:00 +3°C° 0 mm 2 mps 729 mmHg 82%
    22:00 +3°C° 0 mm 2 mps 729 mmHg 83%
    23:00 +3°C° 0 mm 2 mps 729 mmHg 83%

    21 February, Thursday

    Time Temperature Precipitation Wind Pressure Humidity
    00:00 +2°C° 0 mm 2 mps 729 mmHg 82%
    01:00 +2°C° 0 mm 2 mps 729 mmHg 81%
    02:00 +2°C° 0 mm 2 mps 729 mmHg 81%
    03:00 +2°C° 0 mm 2 mps 729 mmHg 82%
    04:00 +2°C° 0 mm 2 mps 729 mmHg 82%
    05:00 +2°C° 0 mm 2 mps 729 mmHg 83%
    06:00 +2°C° 0 mm 2 mps 729 mmHg 84%
    07:00 +2°C° 0 mm 2 mps 729 mmHg 85%
    08:00 +3°C° 0 mm 2 mps 729 mmHg 79%
    09:00 +5°C° 0 mm 2 mps 730 mmHg 73%
    10:00 +6°C° 0 mm 2 mps 730 mmHg 67%
    11:00 +7°C° 0 mm 2 mps 730 mmHg 65%
    12:00 +8°C° 0 mm 3 mps 729 mmHg 63%
    13:00 +9°C° 0 mm 3 mps 729 mmHg 61%
    14:00 +8°C° 0.1 mm 2 mps 729 mmHg 67%
    15:00 +7°C° 0.1 mm 2 mps 729 mmHg 72%
    16:00 +7°C° 0.1 mm 1 mps 728 mmHg 77%
    17:00 +7°C° 0.3 mm 1 mps 728 mmHg 80%
    18:00 +6°C° 0.3 mm 1 mps 728 mmHg 83%
    19:00 +6°C° 0.3 mm 1 mps 728 mmHg 86%
    20:00 +6°C° 0.2 mm 1 mps 728 mmHg 87%
    21:00 +5°C° 0.2 mm 1 mps 728 mmHg 87%
    22:00 +5°C° 0.2 mm 1 mps 727 mmHg 87%
    23:00 +5°C° 0.2 mm 1 mps 727 mmHg 87%

    22 February, Friday

    Time Temperature Precipitation Wind Pressure Humidity
    00:00 +5°C° 0.2 mm 1 mps 727 mmHg 87%
    01:00 +5°C° 0.2 mm 1 mps 726 mmHg 87%
    02:00 +5°C° 0.3 mm 1 mps 726 mmHg 88%
    03:00 +5°C° 0.3 mm 1 mps 726 mmHg 89%
    04:00 +5°C° 0.3 mm 1 mps 726 mmHg 89%
    05:00 +5°C° 0.6 mm 1 mps 725 mmHg 91%
    06:00 +5°C° 0.6 mm 1 mps 725 mmHg 93%
    07:00 +5°C° 0.6 mm 1 mps 725 mmHg 95%
    08:00 +5°C° 0.5 mm 1 mps 725 mmHg 95%
    09:00 +4°C° 0.5 mm 2 mps 726 mmHg 95%
    10:00 +4°C° 0.5 mm 2 mps 726 mmHg 96%
    11:00 +4°C° 0.5 mm 2 mps 726 mmHg 95%
    12:00 +5°C° 0.5 mm 2 mps 726 mmHg 95%
    13:00 +5°C° 0.5 mm 2 mps 726 mmHg 95%
    14:00 +5°C° 0.8 mm 2 mps 727 mmHg 95%
    15:00 +3°C° 0.8 mm 3 mps 727 mmHg 95%
    16:00 +3°C° 0.8 mm 4 mps 728 mmHg 95%
    17:00 0°C° 1 mm 4 mps 729 mmHg 95%
    18:00 -2°C° 1 mm 5 mps 730 mmHg 95%
    19:00 -4°C° 1 mm 5 mps 731 mmHg 94%
    20:00 -5°C° 0.2 mm 5 mps 732 mmHg 90%
    21:00 -6°C° 0.2 mm 5 mps 733 mmHg 85%
    22:00 -7°C° 0.2 mm 5 mps 734 mmHg 80%
    23:00 -8°C° 0 mm 4 mps 734 mmHg 79%
    Show more